Weather Roundup
Issued by NWS

Home | Current Version | Previous Version | Graphics & Text | Print | Product List | Glossary Off
Versions: 1 2 3 4 5 6 7 8 9 10 11 12 13 14 15 16 17 18 19 20 21 22 23 24 25 26 27 28 29 30 31 32 33 34 35 36 37 38 39 40 41 42 43 44 45 46 47 48 49 50

000
NZUS93 KARX 212210
HRRWXR

CURRENT HOURLY OBSERVATIONS ACROSS
MUCH OF THE UPPER MISSISSIPPI VALLEY
NATIONAL WEATHER SERVICE LA CROSSE WI
400 PM CST TUE NOV 21 2017


...SOUTHEAST MINNESOTA...


CITY           SKY/WX    TMP DP  RH WIND       PRES   REMARKS
ROCHESTER      PTCLDY    26  12  55 NW23G31   30.16R WCI  11
ROCHESTER/MAYO FAIR      27  11  51 NW17G25   30.16R WCI  14
WINONA         CLEAR     30  14  51 NW13G26   30.17R WCI  20
AUSTIN         CLEAR     27  10  50 NW18G24   30.17R WCI  13
ALBERT LEA     CLEAR     27  10  50 NW15      30.18S WCI  15
DODGE CENTER   PTCLDY    25  10  54 NW18G26   30.17R WCI  11
PRESTON        CLEAR     26  13  58 NW20      30.15R WCI  12
OWATONNA       CLEAR     27  12  54 NW17      30.19R WCI  14
FARIBAULT      CLEAR     27  12  54 NW9       30.20S WCI  17
$$

...ELSEWHERE IN MINNESOTA...


CITY           SKY/WX    TMP DP  RH WIND       PRES   REMARKS
MINNEAPOLIS    CLEAR     28   9  44 NW22      30.20R WCI  14
INTNL FALLS    FLURRIES  18   9  68 W14       30.15R WCI   4
DULUTH         FLURRIES  18   9  68 NW16G24   30.10R WCI   3
RED WING       CLEAR     28   7  40 NW8G20    30.18R WCI  20
REDWOOD FALLS  CLEAR     26   7  44 NW14G25   30.28R WCI  14
MANKATO        CLEAR     26  11  52 NW20G25   30.23R WCI  12
WORTHINGTON    CLEAR     26   9  48 NW20G26   30.28R WCI  12
FAIRMONT       CLEAR     26  11  52 NW25      30.25R WCI  11
$$

...SOUTHWEST WISCONSIN...


CITY           SKY/WX    TMP DP  RH WIND       PRES   REMARKS
LA CROSSE      CLEAR     30  14  51 NW14      30.14R WCI  19
PRAIRIE DU CHI CLEAR     31  12  45 NW12G22   30.13R WCI  22
BOSCOBEL       CLEAR     32  13  45 NW16G23   30.12R WCI  21
LONE ROCK      CLEAR     31  14  49 NW16G23   30.09R WCI  20
PLATTEVILLE    CLEAR     32  18  57 NW9G17    30.08R WCI  24
FORT MC COY    PTCLDY    29  14  54 NW13G21   30.12R WCI  18
CAMP DOUGLAS   PTCLDY    28  12  50 NW18      30.07R WCI  16
MAUSTON-NEW LI CLEAR     29  14  52 NW15G23   30.07R WCI  18
VIROQUA        FAIR      28  16  61 NW20      30.08R WCI  15
WIS DELLS      CLEAR     29  11  47 NW13G18   30.05R WCI  19
$$

...ELSEWHERE IN WISCONSIN...


CITY           SKY/WX    TMP DP  RH WIND       PRES   REMARKS
MILWAUKEE      MOCLDY    33  16  49 NW16G26   30.00R WCI  23
MADISON        PTCLDY    29  13  51 NW16G29   30.04R WCI  17
GREEN BAY      CLOUDY    31  17  56 NW18      29.99R WCI  19
EAU CLAIRE     CLEAR     28  10  46 NW14      30.14R WCI  17
BLACK RVR FLS  FAIR      29  11  46 NW12G21   30.12R WCI  19
MEDFORD        CLEAR     23  10  57 NW14G20   30.04R WCI  11
WAUSAU         CLOUDY    25  12  58 NW14G25   30.02R WCI  13
WIS RAPIDS     CLOUDY    28  12  51 NW16G25   30.06R WCI  16
MARSHFIELD     PTCLDY    25  11  55 NW18G24   30.04R WCI  11
RICE LAKE      CLEAR     28   8  44 NW10G22   30.15R WCI  18
$$

...NORTHEAST IOWA...


CITY           SKY/WX    TMP DP  RH WIND       PRES   REMARKS
WATERLOO       CLEAR     30  15  53 NW18G26   30.17R WCI  18
DUBUQUE        CLEAR     30  15  53 NW13G26   30.09R WCI  20
DECORAH        CLEAR     28  14  54 NW14G24   30.13R WCI  17
MASON CITY     CLEAR     26  11  52 NW22G31   30.20R WCI  12
CHARLES CITY   CLEAR     28  14  54 NW22      30.18R WCI  15
OELWEIN        CLEAR     30  18  59 NW23G31   30.15R WCI  17
$$

...ELSEWHERE IN IOWA...


CITY           SKY/WX    TMP DP  RH WIND       PRES   REMARKS
DES MOINES     CLEAR     35  15  44 N20G25    30.22R WCI  24
IOWA CITY      CLEAR     34  16  47 NW15G30   30.17R WCI  24
FORT DODGE     CLEAR     29  12  49 N12G22    30.24R WCI  19
MARSHALLTOWN   CLEAR     31  17  56 NW20G31   30.19R WCI  19
CEDAR RAPIDS   CLEAR     32  17  54 NW22G28   30.14R WCI  19
$$

...NORTHERN ILLINOIS...


CITY           SKY/WX    TMP DP  RH WIND       PRES   REMARKS
CHICAGO-OHARE  PTCLDY    35  18  49 NW16      30.00R WCI  25
CHICAGO-MIDWAY MOCLDY    36  20  52 NW15      30.00R WCI  27
MOLINE         CLEAR     34  17  50 NW21G28   30.11R WCI  22
ROCKFORD       MOCLDY    34  18  52 NW16      30.06R WCI  24
PEORIA         PTCLDY    35  20  54 NW10G29   30.10R WCI  27
$$

NOTE: "FAIR" INDICATES FEW OR NO CLOUDS BELOW 12,000 FEET WITH NO
SIGNIFICANT WEATHER AND/OR OBSTRUCTIONS TO VISIBILITY. WIND
SPEEDS ARE IN MILES-PER-HOUR.




USA.gov is the U.S. government's official web portal to all federal, state and local government web resources and services.